Weather History for Tri-Cities, TN

Change the Weather History Date:

Saturday, November 2, 2013

  Actual Average Record
Temperature  
Mean Temperature 51 °F 51 °F  
Max Temperature 63 °F 64 °F 80 °F (1961)
Min Temperature 39 °F 38 °F 24 °F (1954)
Degree Days  
Heating Degree Days 14 14  
Month to date heating degree days 18 28  
Since 1 July heating degree days 259 363  
Cooling Degree Days 0 0  
Month to date cooling degree days 0 0  
Year to date cooling degree days 1003 980  
Moisture  
Dew Point 37 °F    
Average Humidity 63    
Maximum Humidity 93    
Minimum Humidity 32    
Precipitation  
Precipitation 0.04 in 0.09 in 1.16 in (1979)
Month to date precipitation 0.31 0.18  
Year to date precipitation 47.71 34.72  
Snow  
Snow T in 0.00 in - ()
Month to date snowfall 0.0 0.0  
Since 1 July snowfall T 0.1  
Since 1 September snowfall T 0.1  
Snow Depth 0.00 in    
Sea Level Pressure  
Sea Level Pressure 29.85 in    
Wind  
Wind Speed 5 mph (WNW)    
Max Wind Speed 21 mph    
Max Gust Speed 29 mph    
Visibility 9 miles    
Events Fog , Rain    
T = Trace of Precipitation, MM = Missing Value Source: NWS Daily Summary

Daily Weather History Graph

Daily Weather History Graph

Search for Another Location

Airport:

Trip Planner

Search our weather history database for the weather conditions in past years. The results will help you decide how hot, cold, wet, or windy it might be!

Date:

Astronomy

Nov. 02, 2013 Rise Set
Actual Time 7:54 AM EDT 6:31 PM EDT
Civil Twilight 7:27 AM EDT 6:58 PM EDT
Nautical Twilight 6:56 AM EDT 7:28 PM EDT
Astronomical Twilight 6:26 AM EDT 7:59 PM EDT
Moon 6:51 AM EDT (11/2) 6:01 PM EDT (11/2)
Length of Visible Light 11h 31m
Length of Day
10h 37m
Waning Crescent, 1% of the Moon is Illuminated
Nov 2
Waning Crescent
Nov 3
New
Nov 10
First Quarter
Nov 17
Full
Nov 25
Last Quarter

Hourly Weather History & Observations

Time (EDT) Temp. Windchill Dew Point Humidity Pressure Visibility Wind Dir Wind Speed Gust Speed Precip Events Conditions
12:53 AM 51.1 °F - 42.1 °F 71% 29.75 in 10.0 mi WSW 3.5 mph - N/A   Partly Cloudy
1:53 AM 46.9 °F - 41.0 °F 80% 29.75 in 10.0 mi Calm Calm - N/A   Clear
2:53 AM 45.0 °F - 39.9 °F 82% 29.76 in 10.0 mi Calm Calm - N/A   Partly Cloudy
3:53 AM 46.0 °F - 41.0 °F 83% 29.76 in 10.0 mi Calm Calm - N/A   Scattered Clouds
4:53 AM 45.0 °F - 39.9 °F 82% 29.76 in 10.0 mi Calm Calm - N/A   Scattered Clouds
5:53 AM 45.0 °F - 41.0 °F 86% 29.78 in 10.0 mi Calm Calm - N/A   Partly Cloudy
6:53 AM 41.0 °F - 39.0 °F 93% 29.81 in 9.0 mi Calm Calm - N/A   Partly Cloudy
7:41 AM 41.0 °F - 37.9 °F 89% 29.85 in 1.0 mi Calm Calm - N/A Fog Patches of Fog
7:51 AM 39.2 °F - 37.4 °F 93% 29.84 in 0.2 mi Calm Calm - N/A Fog Fog
7:53 AM 39.0 °F - 37.0 °F 93% 29.81 in 0.2 mi Calm Calm - N/A Fog Fog
8:08 AM 41.0 °F - 37.9 °F 89% 29.85 in 5.0 mi Calm Calm - N/A Fog Patches of Fog
8:53 AM 45.0 °F - 41.0 °F 86% 29.83 in 10.0 mi Calm Calm - N/A   Partly Cloudy
9:53 AM 52.0 °F - 44.1 °F 74% 29.85 in 10.0 mi West 5.8 mph - N/A   Mostly Cloudy
10:53 AM 55.9 °F - 42.1 °F 60% 29.85 in 10.0 mi West 8.1 mph - N/A   Scattered Clouds
11:53 AM 57.0 °F - 39.0 °F 51% 29.85 in 10.0 mi West 8.1 mph - 0.00 in   Mostly Cloudy
12:53 PM 60.1 °F - 34.0 °F 38% 29.84 in 10.0 mi West 10.4 mph - N/A   Scattered Clouds
1:53 PM 61.0 °F - 32.0 °F 34% 29.83 in 10.0 mi WNW 12.7 mph - N/A   Mostly Cloudy
2:53 PM 59.0 °F - 32.0 °F 36% 29.83 in 10.0 mi West 11.5 mph - N/A   Mostly Cloudy
3:53 PM 61.0 °F - 30.9 °F 32% 29.82 in 10.0 mi WNW 16.1 mph 28.8 mph N/A   Mostly Cloudy
4:10 PM 60.1 °F - 30.0 °F 32% 29.86 in 10.0 mi NW 19.6 mph 23.0 mph N/A   Mostly Cloudy
4:53 PM 59.0 °F - 32.0 °F 36% 29.83 in 10.0 mi WNW 12.7 mph 18.4 mph N/A   Scattered Clouds
5:14 PM 53.1 °F - 37.0 °F 55% 29.89 in 8.0 mi NW 13.8 mph 24.2 mph 0.01 in Rain Light Rain
5:18 PM 52.0 °F - 39.0 °F 61% 29.90 in 5.0 mi West 19.6 mph 28.8 mph 0.02 in Rain Rain
5:53 PM 54.0 °F - 37.9 °F 55% 29.86 in 10.0 mi WNW 5.8 mph - 0.04 in   Scattered Clouds
6:53 PM 50.0 °F - 37.9 °F 63% 29.90 in 10.0 mi West 6.9 mph - N/A   Scattered Clouds
7:53 PM 50.0 °F - 36.0 °F 59% 29.94 in 10.0 mi WNW 6.9 mph - N/A   Scattered Clouds
8:53 PM 50.0 °F - 34.0 °F 54% 29.96 in 10.0 mi NW 4.6 mph - N/A   Scattered Clouds
9:53 PM 45.0 °F 42.6 °F 35.1 °F 68% 29.99 in 10.0 mi WNW 4.6 mph - N/A   Scattered Clouds
10:53 PM 46.0 °F 43.1 °F 34.0 °F 63% 30.01 in 10.0 mi NW 5.8 mph - N/A   Scattered Clouds
11:53 PM 43.0 °F 40.3 °F 35.1 °F 74% 30.04 in 10.0 mi West 4.6 mph - N/A   Partly Cloudy